Starlink 34350

operational
NORAD ID: 64276 Int'l Des: 2025-120 Owner: SPXS Country: US Constellation: starlink
LEOCIRCULAR

About Starlink 34350

Description loading...

Live Position

Loading 3D Globe...

Upcoming Passes

Altitude History

Altitude vs Time

uPlot chart will show altitude changes over time

Two-Line Element Set

1 64276U 25120W 25306.35970957 .00023232 00000-0 79373-3 0 9990
2 64276 53.1592 347.9653 0001461 83.9583 276.1584 15.30213569 24427
Epoch: Nov 2, 2025 • Age: 36 hours

Current Status

Altitude 491.6 km
Velocity 7.62 km/s
Sub-Earth Point -46.23°S, 59.46°W
Launch Date Jun 4, 2025
Age 0.4 years
Type internet

Technical Details

Classification Payload
Mass 575.00 kg
Dry Mass 530.00 kg
Total Mass 575.00 kg
Length 0.30 m
Diameter 4.10 m
Span 29.00 m
Shape Box + pan
Manufacturer SPXS
Bus Type Starlink V2MO
Phase Status In Orbit
Owner/State SPXS/US

Large Constellations

Loading constellations...